Lid_Strength_Index
-1 -1 -1 2 7 7 10 10 7 8 8 5 5 6 7 6 8 10 1 -0 -1 -1 -2 -1 -2 -1 -1 -1 -1 -1 -2 -2 -2 -2 -2 -2 -2 -2 -2 -2 -2 -2 -2 -2 -2 -2 -1 -2 -2
-0 0 1 3 8 11 11 8 9 7 6 4 4 5 6 7 3 3 2 -0 -1 -1 -2 -2 -1 -1 -1 -1 -1 -1 -1 -2 -2 -2 -2 -2 -1 -2 -2 -2 -2 -2 -2 -2 -2 -2 -1 -1 -1
1 3 4 5 8 11 11 8 7 6 5 5 6 4 5 6 3 2 0 -1 -1 -1 -2 -2 -1 -1 -2 -2 -1 -1 -1 -2 -2 -2 -2 -2 -2 -2 -2 -2 -2 -2 -2 -2 -2 -2 -2 -1 -1
1 2 2 8 10 8 8 7 6 6 5 4 4 7 4 2 2 1 -0 -1 -1 -1 -2 -2 -2 -2 -2 -2 -2 -1 -1 -2 -2 -2 -2 -1 -1 -2 -2 -2 -2 -2 -2 -2 -2 -2 -2 -1 -1
1 3 7 9 9 8 6 6 5 7 6 6 5 7 7 3 0 -0 -0 -1 -0 -1 -1 -2 -2 -2 -2 -2 -2 -2 -2 -2 -1 -1 -2 -1 -2 -2 -2 -1 -2 -2 -2 -2 -2 -2 -2 -1 -1
4 4 8 10 10 8 6 5 5 6 6 5 6 6 6 2 1 1 -0 -0 -1 -1 -1 -2 -2 -2 -2 -2 -2 -2 -2 -2 -2 -2 -2 -1 -1 -1 -1 -2 -2 -2 -2 -2 -2 -2 -2 -2 -1
4 5 8 9 10 9 7 5 6 6 6 7 4 8 6 3 1 0 -0 -1 -1 -1 -1 -2 -2 -2 -2 -2 -2 -2 -2 -2 -2 -2 -1 -1 -1 -1 -1 -1 -1 -1 -1 -1 -2 -2 -2 -1 -1
2 5 8 8 9 10 7 6 5 6 7 4 4 7 8 4 1 1 1 0 -0 -1 -1 -1 -2 -1 -1 -2 -2 -2 -1 -2 -2 -2 -2 -2 -1 -1 -1 -1 -2 -1 -1 -1 -1 -1 -1 -1 -1
3 6 8 8 8 9 5 7 5 4 6 5 5 5 4 2 1 1 2 1 1 0 -1 -0 -0 0 -0 -1 -0 -1 -1 -0 -0 -0 -1 -2 -2 -2 -2 -2 -1 -1 -1 -1 -1 -1 -1 -1 -1
4 7 8 6 6 7 6 6 6 7 7 7 6 4 3 3 2 2 2 2 1 1 1 1 1 1 2 2 1 1 1 -0 -0 -0 -0 -0 -0 -2 -2 -1 -1 -1 -1 -1 -1 -1 -1 -1 -2
5 8 6 6 5 5 6 6 5 7 9 7 7 5 4 4 3 3 3 4 4 3 2 2 1 -0 1 1 0 0 1 -0 -1 -0 -0 -1 -0 -1 -0 -0 -2 -2 -2 -2 -2 -2 -2 -1 -1
7 6 6 6 5 6 7 5 7 6 7 5 4 4 4 5 5 5 5 5 4 2 1 1 0 -0 -1 -0 -0 -0 -0 -0 -0 -0 -1 -2 -1 -2 -2 -2 -2 -2 -2 -1 -1 0 -1 -1 -0
7 6 5 5 5 5 5 7 7 7 5 4 4 4 5 5 5 4 4 3 1 1 1 1 -0 -1 -1 -1 -1 -1 -1 -1 -1 -1 -2 -2 -2 -1 -2 -2 -2 -1 -2 -2 -2 -2 -1 -0 -0
6 6 6 5 6 5 7 7 6 6 4 4 4 4 3 3 4 4 3 2 1 1 0 -1 -0 -2 -2 -2 -2 -1 -1 -1 -1 -1 -1 -2 -2 -1 -1 -1 -1 -2 -2 -2 -1 -0 -1 -1 -1
5 8 7 6 6 6 5 9 9 5 5 5 5 4 3 3 3 2 1 1 0 -0 -1 -1 -1 -2 -2 -2 -2 -1 -1 -1 -1 -0 -1 -1 -2 -2 -2 -1 -1 -1 -2 -2 -2 -2 -2 -1 -0
7 7 10 7 6 6 7 12 8 5 5 6 5 5 4 3 2 1 1 1 0 -0 -0 -1 -1 -2 -2 -2 -2 -1 -1 -1 -1 -1 -1 -2 -2 -2 -2 -1 -1 -2 -2 -2 -1 -1 -1 -1 -1
8 10 10 10 6 7 7 11 7 5 6 6 5 4 4 3 2 2 1 0 0 -0 -0 -1 -1 -1 -2 -2 -2 -2 -1 -0 -0 -1 -1 -1 -2 -2 -2 -2 -2 -2 -1 -1 -1 -1 -1 -0 -0
9 10 9 10 8 7 9 10 8 6 6 6 5 4 4 4 3 2 1 0 0 -0 -1 -1 -1 -1 -2 -1 -1 -0 -0 -0 -0 -0 -0 -1 -1 -1 -1 -2 -2 -2 -1 -0 -0 -1 -1 -0 -0
6 8 10 9 8 9 9 9 8 7 6 6 5 5 4 4 2 2 1 0 0 -0 -0 -1 -1 -1 -1 0 1 1 1 1 0 0 0 -0 -0 -0 -1 -1 -2 -2 -1 -1 -1 -1 -0 0 -1
7 9 10 9 8 8 9 10 8 7 6 5 5 5 4 3 3 2 2 1 1 0 -0 -1 -1 -1 -0 0 0 0 0 0 1 1 1 1 0 -0 -0 -1 -1 -2 -1 -1 -1 -1 0 0 -1
8 9 10 10 9 8 9 12 10 7 6 5 5 4 4 4 3 3 2 1 1 1 -0 -0 -0 -0 -1 -1 -0 -0 -0 0 1 1 2 0 -0 -1 -1 -2 -2 -1 -1 -0 -1 -1 -0 1 -0
9 7 8 9 11 12 9 13 12 9 8 7 6 5 4 4 3 3 2 2 1 1 -0 -0 -0 -1 -1 -1 -1 0 2 3 2 2 1 0 -2 -2 -2 -2 -2 -2 -2 -1 -1 -1 -1 -0 1
9 7 8 9 10 11 11 13 12 9 10 8 6 5 4 3 3 3 2 2 1 1 0 0 -0 -1 -1 -1 -1 1 1 1 2 1 0 -1 -2 -2 -2 -1 -1 -2 -2 -1 -1 -1 -1 -1 0
6 8 8 8 9 13 11 12 12 12 9 8 6 5 4 3 3 2 2 1 1 1 1 1 0 -0 -1 -1 -1 0 1 1 2 0 0 -0 -1 -2 -2 -1 -2 -2 -1 -1 -1 -1 -1 -1 0
7 9 13 13 15 14 10 12 12 9 7 7 6 5 4 3 3 3 2 2 2 1 1 1 0 0 -1 -1 -0 0 1 1 0 0 -0 -0 -0 -0 -1 -2 -1 -1 -2 -2 -1 -1 -1 -1 -0
8 9 11 15 14 12 11 14 12 7 6 5 5 4 4 4 3 3 2 2 2 1 1 1 0 0 -0 -0 -0 0 -0 1 1 -1 -0 -0 -0 -1 -2 -2 -1 -1 -1 -1 -2 -1 -1 -1 1
8 9 7 10 10 12 12 11 8 7 7 6 6 5 5 4 3 3 3 2 2 1 1 1 0 0 0 0 0 -0 -0 0 -1 -1 -1 -1 -1 -1 -2 -2 -1 -2 -2 -1 -1 -0 -0 -0 -0
7 6 10 9 15 16 13 12 13 9 8 7 6 6 5 4 3 3 3 2 1 1 1 0 -0 1 0 0 -0 -0 -0 0 -0 -1 -1 -1 -1 -1 -1 -1 -1 -1 -1 -1 -1 -0 -0 -0 -0
7 8 8 9 10 14 13 14 7 8 7 6 5 5 5 4 3 5 3 2 1 1 1 0 1 1 -0 -0 -0 0 0 0 -1 -0 -1 -1 -2 -2 -1 -1 -1 -1 -1 -1 -1 -1 -1 -0 -1
6 8 8 11 13 11 11 14 6 6 6 5 5 5 4 3 4 3 2 2 2 2 1 1 1 1 -0 -1 -1 -1 0 1 -1 -1 -1 -2 -1 -1 -1 -1 -1 -1 -1 -1 -1 -1 -1 -0 -0